User: anonymous   Login
Location: Unspecified
(0.0000°N, 0.0000°E)
Time: 23:32:55
(UTC+00:00)
Language:

SKYSAT 1 - Orbit

View from above orbital plane
View from above orbital plane
View from above satellite
View from above satellite

Ground track
Ground track

The orbit is defined by the following mean orbital elements,

1 39418U          26145.57140395 +.00000000 +00000-0 +15821-3 0 00000
2 39418  97.3831 195.6896 0022345  36.6999 323.5757 15.12825030    09
Epoch (UTC): 25 May 2026 13:42:49
Eccentricity: 0.0022345
inclination: 97.3831°
perigee height: 512 km
apogee height: 543 km
right ascension of ascending node: 195.6896°
argument of perigee: 36.6999°
revolutions per day: 15.12825030
mean anomaly at epoch: 323.5757°

The dashed part of the orbit path shows where the satellite is in the earth's shadow,  

DLR